[Date Prev][Date Next][Thread Prev][Thread Next] - [Date Index][Thread Index][Author Index]

NEW KEPS-DAY 221



ISS (ZARYA)             
1 25544U 98067A   07220.88563398  .00008468  00000-0  56993-4 0  7430
2 25544  51.6320 191.7165 0008104 217.9929 243.8684 15.76137509499091
STS 118                 
1 32008U 07035A   07221.34395840  .00112440  00000-0  45295-3 0    54
2 32008  51.6280 189.4027 0020824 112.0883  48.2798 15.85219015    68

----
Sent via sarex@amsat.org. Opinions expressed are those of the author.
Not an AMSAT member? Join now to support the amateur satellite program!
Subscription settings: http://amsat.org/mailman/listinfo/sarex



AMSAT Top AMSAT Home